Regional Weather Roundup
Issued by NWS

Home | Current Version | Previous Version | Text Only | Print | Product List | Glossary Off
Versions: 1 2 3 4 5 6 7 8 9 10 11 12 13 14 15 16 17 18 19 20 21 22 23 24 25 26 27 28 29 30 31 32 33 34 35 36 37 38 39 40 41 42 43 44 45 46 47 48 49 50

000
ASUS43 KOAX 021410
RWRNE

WEATHER ROUNDUP FOR NEBRASKA
NATIONAL WEATHER SERVICE OMAHA NE
900 AM CDT TUE JUN 02 2015

NOTES: SATELLITE DATA IS BEING USED TO AUGMENT CLOUD COVER ABOVE
       12000 FEET.
       "FAIR" INDICATES FEW OR NO CLOUDS BELOW 12,000 FEET WITH NO
       SIGNIFICANT WEATHER AND/OR OBSTRUCTIONS TO VISIBILITY.

  * THESE STATIONS DO NOT REPORT WEATHER SUCH AS RAIN...SNOW OR FOG.

NEZ001>004-019>022-054>056-021500-
NEBRASKA PANHANDLE

CITY           SKY/WX    TMP DP  RH WIND       PRES   REMARKS
SCOTTSBLUFF    MOSUNNY   66  58  75 SW10      29.92F
ALLIANCE       PTSUNNY   64  58  80 SW14      29.92S
CHADRON        MOSUNNY   71  54  54 W12       29.83R
KIMBALL          N/A    N/A N/A N/A MISG        N/A
SIDNEY         MOSUNNY   63  56  78 S13G22    29.95S
$$

NEZ057>060-069>072-079>082-021500-
SOUTHWEST NEBRASKA

CITY           SKY/WX    TMP DP  RH WIND       PRES   REMARKS
NORTH PLATTE   MOSUNNY   65  59  81 VRB6      29.90F
IMPERIAL       SUNNY     64  57  78 S10       29.91F
LEXINGTON      CLOUDY    64  62  93 S12       29.92R
MCCOOK         PTSUNNY   68  61  78 S12       29.88F
OGALLALA       SUNNY     65  58  78 SW8G17    29.89S
$$

NEZ005>010-023>029-035>040-094-021500-
NORTH CENTRAL NEBRASKA

CITY           SKY/WX    TMP DP  RH WIND       PRES   REMARKS
AINSWORTH      PTSUNNY   67  60  79 S10       29.87S
BROKEN BOW     CLOUDY    66  60  81 S15G23    29.92R
O`NEILL        CLOUDY    64  60  86 S16G25    29.90S
ORD            CLOUDY    63  58  83 S15G23    29.92R
THEDFORD       MOSUNNY   69  58  67 S10       29.89S
$$

NEZ041-046>049-061>064-073>077-083>087-021500-
SOUTH CENTRAL NEBRASKA

CITY           SKY/WX    TMP DP  RH WIND       PRES   REMARKS
GRAND ISLAND   CLOUDY    61  57  87 S17G29    29.97R
AURORA         CLOUDY    60  57  92 SE17G24   29.95S
HASTINGS       CLOUDY    60  57  89 S14G26    29.94R
HEBRON         CLOUDY    60  56  87 SE15G21   30.00F
HOLDREGE       CLOUDY    62  59  91 S14G26    29.91R
KEARNEY *      CLOUDY    63  57  82 S13G20    29.92R
YORK           CLOUDY    59  57  94 SE17      29.97S
$$

NEZ011>018-030>034-042>045-021500-
NORTHEAST NEBRASKA

CITY           SKY/WX    TMP DP  RH WIND       PRES   REMARKS
NORFOLK        CLOUDY    62  56  80 SE17      29.96R
ALBION         CLOUDY    61  55  81 S18G24    29.94F
BLAIR          PTSUNNY   60  52  75 SE17      30.01F
COLUMBUS *     PTSUNNY   63  54  72 S14G20    29.98S
FREMONT        CLOUDY    61  54  77 SE17      30.00F
TEKAMAH        PTSUNNY   64  54  69 SE22      30.01F
WAYNE          PTSUNNY   62  55  77 S17G25    29.96F
$$

NEZ050>053-065>068-078-088>093-021500-
SOUTHEAST NEBRASKA

CITY           SKY/WX    TMP DP  RH WIND       PRES   REMARKS
LINCOLN        PTSUNNY   62  55  77 S18G24    30.02F
OMAHA EPPLEY   CLOUDY    62  53  72 S18       30.04F
BEATRICE       CLOUDY    58  56  92 S9        30.03S
FALLS CITY     CLOUDY    60  54  80 SE12      30.08R
NEBRASKA CITY  PTSUNNY   60  53  80 S15G21    30.07F
PLATTSMOUTH    CLOUDY    60  53  79 SE10G22   30.05F
$$

NEZ044-045-051>053-067-021500-
OMAHA AREA

CITY           SKY/WX    TMP DP  RH WIND       PRES   REMARKS
OMAHA EPPLEY   CLOUDY    62  53  72 S18       30.04F
BLAIR          PTSUNNY   60  52  75 SE17      30.01F
FREMONT        CLOUDY    61  54  77 SE17      30.00F
MILLARD        CLOUDY    61  55  80 SE17G24   30.03F
OFFUTT AFB     CLOUDY    61  54  76 SE20      30.03F
PLATTSMOUTH    CLOUDY    60  53  79 SE10G22   30.05F
WAHOO          FAIR      61  55  79 SE23      30.00S
$$



USA.gov is the U.S. government's official web portal to all federal, state and local government web resources and services.